Regional Weather Roundup
Issued by NWS

Home | Current Version | Previous Version | Text Only | Print | Product List | Glossary On
Versions: 1 2 3 4 5 6 7 8 9 10 11 12 13 14 15 16 17 18 19 20 21 22 23 24 25 26 27 28 29 30 31 32 33 34 35 36 37 38 39 40 41 42 43 44 45 46 47 48 49 50
000
ASUS43 KLSX 302357
RWRMO

WEATHER SUMMARY FOR MISSOURI
NATIONAL WEATHER SERVICE SPRINGFIELD MO
700 PM CDT MON MAY 30 2016

NOTE: "FAIR" INDICATES FEW OR NO CLOUDS BELOW 12,000 FEET WITH NO
       SIGNIFICANT WEATHER AND/OR OBSTRUCTIONS TO VISIBILITY.
       CURRENT SKY AND/OR WEATHER CONDITIONS ARE NOT AVAILABLE FOR
       CHILLICOTHE AND FARMINGTON.

MOZ001>031-035>038-043-044-053-054-310100-
...NORTHERN AND WESTERN MISSOURI...

CITY           SKY/WX    TMP DP  RH WIND       PRES   REMARKS
KANSAS CTY INT PTSUNNY   74  61  63 S16       29.95S
6HR MIN TEMP:  67; 6HR MAX TEMP:  86; 6HR PCP:  0.07;

LEE`S SUMMIT   CLOUDY    74  58  57 S12       29.98F
6HR MIN TEMP:  70; 6HR MAX TEMP:  81; 6HR PCP:  0.01;

ST JOSEPH      LGT RAIN  77  66  68 S13G22    29.92F
6HR MIN TEMP:  71; 6HR MAX TEMP:  87; 6HR PCP: TRACE;

CHILLICOTHE      N/A     70  63  78 SW8       29.98S
6HR MIN TEMP:  68; 6HR MAX TEMP:  87; 6HR PCP:  0.01;


$$
MOZ066>068-077>081-088>096-101>105-310100-
...SOUTHWEST MISSOURI...

CITY           SKY/WX    TMP DP  RH WIND       PRES   REMARKS
SPRINGFIELD    LGT RAIN  70  62  76 E6        30.03R
6HR MIN TEMP:  70; 6HR MAX TEMP:  80; 6HR PCP: TRACE;

JOPLIN         LGT RAIN  69  66  90 SE8       30.00F
6HR MIN TEMP:  66; 6HR MAX TEMP:  70; 6HR PCP:  0.09;

BRANSON        LGT RAIN  66  66 100 CALM      30.04F

$$
MOZ032>034-039>042-045>050-055>058-069>072-310100-
...CENTRAL MISSOURI...

CITY           SKY/WX    TMP DP  RH WIND       PRES   REMARKS
COLUMBIA       NOT AVBL
JEFFERSON CITY CLOUDY    70  61  73 SW9       30.01F
6HR MIN TEMP:  70; 6HR MAX TEMP:  85; 6HR PCP: TRACE;

ROLLA          CLOUDY    66  63  90 W6        30.02R
6HR MIN TEMP:  66; 6HR MAX TEMP:  83; 6HR PCP:  0.01;

SEDALIA        LGT RAIN  68  63  84 S5        30.01S
6HR MIN TEMP:  66; 6HR MAX TEMP:  85; 6HR PCP:  0.06;

WARRENSBURG    LGT RAIN  64  61  88 S5        29.98S

$$
MOZ051-052-059>065-310100-
...EAST CENTRAL MISSOURI...

CITY           SKY/WX    TMP DP  RH WIND       PRES   REMARKS
ST LOUIS INTL  CLOUDY    78  56  46 SW5       29.99F
6HR MIN TEMP:  78; 6HR MAX TEMP:  91; 6HR PCP: TRACE;

SPIRIT OF STL  CLOUDY    70  63  78 S5        29.97F

$$
MOZ072>076-082>087-097>100-106>115-310100-
...SOUTH CENTRAL AND SOUTHEAST MISSOURI...

CITY           SKY/WX    TMP DP  RH WIND       PRES   REMARKS
CAPE GIRARDEAU PTSUNNY   83  64  52 CALM      29.98R
6HR MIN TEMP:  82; 6HR MAX TEMP:  88;

POPLAR BLUFF   CLOUDY    81  64  56 W5        29.98S
6HR MIN TEMP:  81; 6HR MAX TEMP:  86;

WEST PLAINS    CLOUDY    66  61  84 N7        30.06R
6HR MIN TEMP:  66; 6HR MAX TEMP:  83; 6HR PCP:  0.21;


$$



USA.gov is the U.S. government's official web portal to all federal, state and local government web resources and services.